Meteo pe oră la Dabrowica

Astăzi, 22 Aprilie, Joi

Timp Temperatura Precipitaţii Vânt Presiune Umiditate
00:00 +8°C° 0.1 mm 3 m/s 745 mmHg 84%
01:00 +8°C° 0 mm 3 m/s 745 mmHg 87%
02:00 +7°C° 0 mm 3 m/s 745 mmHg 88%
03:00 +7°C° 0 mm 3 m/s 745 mmHg 89%
04:00 +5°C° 0 mm 3 m/s 745 mmHg 91%
05:00 +7°C° 0 mm 3 m/s 745 mmHg 87%
06:00 +8°C° 0 mm 3 m/s 745 mmHg 83%
07:00 +9°C° 0 mm 3 m/s 746 mmHg 80%
08:00 +8°C° 0.2 mm 4 m/s 746 mmHg 78%
09:00 +9°C° 0.2 mm 5 m/s 746 mmHg 77%
10:00 +9°C° 0.2 mm 6 m/s 746 mmHg 76%
11:00 +8°C° 0.1 mm 5 m/s 747 mmHg 77%
12:00 +7°C° 0.1 mm 5 m/s 747 mmHg 77%
13:00 +6°C° 0.1 mm 5 m/s 748 mmHg 77%
14:00 +7°C° 0 mm 5 m/s 748 mmHg 67%
15:00 +8°C° 0 mm 5 m/s 748 mmHg 56%
16:00 +9°C° 0 mm 5 m/s 747 mmHg 45%
17:00 +7°C° 0 mm 4 m/s 748 mmHg 51%
18:00 +7°C° 0 mm 3 m/s 748 mmHg 57%
19:00 +4°C° 0 mm 3 m/s 748 mmHg 62%
20:00 +4°C° 0 mm 3 m/s 749 mmHg 65%
21:00 +3°C° 0 mm 3 m/s 749 mmHg 68%
22:00 +2°C° 0 mm 3 m/s 749 mmHg 71%
23:00 +2°C° 0 mm 3 m/s 749 mmHg 74%

Mâine, 23 Aprilie, Vineri

Timp Temperatura Precipitaţii Vânt Presiune Umiditate
00:00 +1°C° 0 mm 3 m/s 750 mmHg 78%
01:00 +1°C° 0 mm 3 m/s 750 mmHg 82%
02:00 +1°C° 0 mm 3 m/s 750 mmHg 84%
03:00 0°C° 0 mm 3 m/s 750 mmHg 87%
04:00 0°C° 0 mm 3 m/s 750 mmHg 89%
05:00 +1°C° 0 mm 3 m/s 750 mmHg 83%
06:00 +3°C° 0 mm 4 m/s 751 mmHg 76%
07:00 +3°C° 0 mm 5 m/s 751 mmHg 70%
08:00 +5°C° 0.1 mm 5 m/s 751 mmHg 61%
09:00 +6°C° 0.1 mm 5 m/s 751 mmHg 53%
10:00 +8°C° 0.1 mm 5 m/s 751 mmHg 45%
11:00 +8°C° 0.1 mm 6 m/s 751 mmHg 46%
12:00 +8°C° 0.1 mm 6 m/s 751 mmHg 48%
13:00 +8°C° 0.1 mm 6 m/s 751 mmHg 49%
14:00 +8°C° 0.2 mm 6 m/s 751 mmHg 50%
15:00 +8°C° 0.2 mm 6 m/s 751 mmHg 51%
16:00 +8°C° 0.2 mm 6 m/s 751 mmHg 52%
17:00 +7°C° 0.1 mm 6 m/s 751 mmHg 58%
18:00 +4°C° 0.1 mm 6 m/s 752 mmHg 64%
19:00 +3°C° 0.1 mm 5 m/s 752 mmHg 70%
20:00 +2°C° 0 mm 5 m/s 752 mmHg 74%
21:00 +1°C° 0 mm 4 m/s 752 mmHg 79%
22:00 0°C° 0 mm 4 m/s 752 mmHg 83%
23:00 0°C° 0 mm 4 m/s 753 mmHg 86%

Poimâine, 24 Aprilie, Sâmbătă

Timp Temperatura Precipitaţii Vânt Presiune Umiditate
00:00 +1°C° 0 mm 3 m/s 753 mmHg 90%
01:00 0°C° 0 mm 3 m/s 753 mmHg 93%
02:00 0°C° 0 mm 3 m/s 753 mmHg 93%
03:00 -1°C° 0 mm 3 m/s 753 mmHg 92%
04:00 -1°C° 0 mm 3 m/s 753 mmHg 92%
05:00 +1°C° 0 mm 3 m/s 753 mmHg 80%
06:00 +1°C° 0 mm 4 m/s 753 mmHg 68%
07:00 +4°C° 0 mm 4 m/s 754 mmHg 57%
08:00 +5°C° 0 mm 4 m/s 753 mmHg 50%
09:00 +6°C° 0 mm 4 m/s 753 mmHg 44%
10:00 +8°C° 0 mm 4 m/s 753 mmHg 38%
11:00 +8°C° 0 mm 4 m/s 753 mmHg 37%
12:00 +10°C° 0 mm 4 m/s 753 mmHg 37%
13:00 +9°C° 0 mm 5 m/s 752 mmHg 37%
14:00 +10°C° 0 mm 4 m/s 752 mmHg 39%
15:00 +10°C° 0 mm 4 m/s 752 mmHg 41%
16:00 +10°C° 0 mm 4 m/s 751 mmHg 43%
17:00 +9°C° 0 mm 3 m/s 751 mmHg 51%
18:00 +8°C° 0 mm 3 m/s 751 mmHg 59%
19:00 +6°C° 0 mm 2 m/s 751 mmHg 67%
20:00 +6°C° 0 mm 2 m/s 751 mmHg 70%
21:00 +5°C° 0 mm 2 m/s 751 mmHg 73%
22:00 +6°C° 0 mm 1 m/s 751 mmHg 76%
23:00 +4°C° 0 mm 2 m/s 751 mmHg 80%

25 Aprilie, Duminică

Timp Temperatura Precipitaţii Vânt Presiune Umiditate
00:00 +4°C° 0 mm 2 m/s 751 mmHg 84%
01:00 +3°C° 0 mm 2 m/s 751 mmHg 88%
02:00 +2°C° 0 mm 2 m/s 751 mmHg 90%
03:00 +2°C° 0 mm 2 m/s 751 mmHg 93%
04:00 0°C° 0 mm 3 m/s 751 mmHg 96%
05:00 +2°C° 0.2 mm 2 m/s 751 mmHg 93%
06:00 +2°C° 0.2 mm 2 m/s 751 mmHg 91%
07:00 +3°C° 0.2 mm 2 m/s 752 mmHg 88%
08:00 +4°C° 0.1 mm 2 m/s 752 mmHg 80%
09:00 +5°C° 0.1 mm 2 m/s 752 mmHg 71%
10:00 +6°C° 0.1 mm 2 m/s 752 mmHg 63%
11:00 +7°C° 0.3 mm 3 m/s 751 mmHg 59%
12:00 +6°C° 0.3 mm 4 m/s 751 mmHg 55%
13:00 +7°C° 0.3 mm 5 m/s 751 mmHg 52%
14:00 +7°C° 0.1 mm 5 m/s 751 mmHg 50%
15:00 +7°C° 0.1 mm 6 m/s 751 mmHg 48%
16:00 +7°C° 0.1 mm 6 m/s 750 mmHg 46%
17:00 +6°C° 0 mm 5 m/s 751 mmHg 50%
18:00 +4°C° 0 mm 4 m/s 751 mmHg 55%
19:00 +3°C° 0 mm 3 m/s 751 mmHg 60%
20:00 +2°C° 0 mm 3 m/s 751 mmHg 64%
21:00 +2°C° 0 mm 3 m/s 751 mmHg 67%
22:00 +1°C° 0 mm 3 m/s 751 mmHg 71%
23:00 +1°C° 0 mm 3 m/s 751 mmHg 72%

26 Aprilie, Luni

Timp Temperatura Precipitaţii Vânt Presiune Umiditate
00:00 0°C° 0 mm 3 m/s 751 mmHg 73%
01:00 -1°C° 0 mm 3 m/s 751 mmHg 73%
02:00 -1°C° 0 mm 2 m/s 751 mmHg 74%
03:00 -1°C° 0 mm 2 m/s 751 mmHg 74%
04:00 -2°C° 0 mm 2 m/s 751 mmHg 75%
05:00 +1°C° 0 mm 2 m/s 751 mmHg 68%
06:00 +2°C° 0 mm 3 m/s 751 mmHg 62%
07:00 +3°C° 0 mm 3 m/s 751 mmHg 55%
08:00 +5°C° 0 mm 3 m/s 750 mmHg 51%
09:00 +6°C° 0 mm 4 m/s 750 mmHg 47%
10:00 +7°C° 0 mm 4 m/s 750 mmHg 43%
11:00 +8°C° 0.1 mm 4 m/s 749 mmHg 45%
12:00 +8°C° 0.1 mm 4 m/s 749 mmHg 47%
13:00 +8°C° 0.1 mm 4 m/s 749 mmHg 48%
14:00 +10°C° 0.1 mm 4 m/s 748 mmHg 47%
15:00 +10°C° 0.1 mm 3 m/s 748 mmHg 47%
16:00 +10°C° 0.1 mm 3 m/s 748 mmHg 46%
17:00 +9°C° 0 mm 2 m/s 748 mmHg 52%
18:00 +7°C° 0 mm 2 m/s 747 mmHg 57%
19:00 +7°C° 0 mm 1 m/s 747 mmHg 63%
20:00 +6°C° 0 mm 1 m/s 748 mmHg 65%
21:00 +5°C° 0 mm 1 m/s 748 mmHg 67%
22:00 +5°C° 0 mm 1 m/s 748 mmHg 69%
23:00 +4°C° 0 mm 1 m/s 748 mmHg 71%

27 Aprilie, Marţi

Timp Temperatura Precipitaţii Vânt Presiune Umiditate
00:00 +4°C° 0 mm 1 m/s 747 mmHg 73%
01:00 +3°C° 0 mm 1 m/s 747 mmHg 76%
02:00 +3°C° 0 mm 1 m/s 747 mmHg 78%
03:00 +3°C° 0 mm 1 m/s 747 mmHg 79%
04:00 +2°C° 0 mm 1 m/s 746 mmHg 81%
05:00 +4°C° 0 mm 1 m/s 746 mmHg 76%
06:00 +6°C° 0 mm 1 m/s 746 mmHg 71%
07:00 +6°C° 0 mm 2 m/s 746 mmHg 66%
08:00 +8°C° 0 mm 2 m/s 746 mmHg 61%
09:00 +10°C° 0 mm 2 m/s 746 mmHg 55%
10:00 +12°C° 0 mm 2 m/s 745 mmHg 50%
11:00 +13°C° 0 mm 2 m/s 745 mmHg 47%
12:00 +14°C° 0 mm 2 m/s 744 mmHg 44%
13:00 +15°C° 0 mm 2 m/s 744 mmHg 41%
14:00 +14°C° 0 mm 3 m/s 743 mmHg 42%
15:00 +14°C° 0 mm 3 m/s 743 mmHg 43%
16:00 +14°C° 0 mm 3 m/s 743 mmHg 45%
17:00 +12°C° 0 mm 3 m/s 742 mmHg 51%
18:00 +10°C° 0 mm 3 m/s 742 mmHg 58%
19:00 +9°C° 0 mm 3 m/s 742 mmHg 64%
20:00 +8°C° 0 mm 3 m/s 742 mmHg 66%
21:00 +8°C° 0 mm 3 m/s 741 mmHg 67%
22:00 +7°C° 0 mm 4 m/s 741 mmHg 69%
23:00 +7°C° 0 mm 4 m/s 741 mmHg 71%
Arată mai mult

Formular de consimțământ

Meteoprog și furnizorii noștri de servicii pot stoca și accesa date personale, precum cookies, identificatori de dispozitiv sau alte tehnologii similare pe dispozitivul dumneavoastră și procesa astfel de date pentru a personaliza conținutul și reclamele, dar și pentru a oferi caracteristici de social media și pentru a analiza traficul.

  • Stocarea și/sau accesarea informațiilor pe dispozitivul dumneavoastră

    Cookies, identificatori de dispozitiv sau alte informații pot fi stocate sau accesate pe dispozitiv în scopurile indicate mai sus.

  • Reclame și conținut personalizat, evaluarea reclamelor și a conținutului, informații despre audiențe și dezvoltarea produselor

    Reclamele și conținutul pot fi personalizate pe baza unui profil. Pot fi adăugate date suplimentare pentru a personaliza mai bine reclamele și conținutul. Performanța reclamelor și conținutului poate fi măsurată. Pot fi obținute informații despre utilizatorii care au văzut reclamele și conținutul. Aceste date pot fi utilizate pentru a dezvolta sau îmbunătăți experiența utilizatorilor, sistemele și software-ul.

Dând clic pe ‘Sunt de acord’, permiteți utilizarea cookie-urilor menționate, a identificatorilor de dispozitiv, balizelor web sau altor tehnologii similare. Setările pot fi modificate din browser-ul dispozitivului dumneavoastră.

În anumite scopuri, interesele legitime pot prima asupra consimțământului. Puteți citi mai multe informații în acest sens în Politica privind Confidențialitatea Datelor și Cookie.